Tracking 27086 objects as of 22-Mar-2023
HD Live streaming from Space Station
objects crossing your sky now

STARLINK-5676

Track STARLINK-5676 now!
10-day predictions
STARLINK-5676 is classified as:


NORAD ID: 55464
Int'l Code: 2023-015R
Perigee: 402.8 km
Apogee: 404.6 km
Inclination: 43.0 °
Period: 92.5 minutes
Semi major axis: 6774 km
RCS: Unknown
Launch date: February 2, 2023
Source: United States (US)
Launch site: AIR FORCE EASTERN TEST RANGE (AFETR)
Your satellite tracking list
Your tracking list is empty




NASA's NSSDC Master Catalog

Two Line Element Set (TLE):
1 55464U 23015R   23081.25001157 -.00926958  00000-0 -13830-1 0  9997
2 55464  43.0001 100.2068 0001333 268.8983  84.9768 15.56912996  7692
Source of the keplerian elements: AFSPC